Flag for U.S.A. Weather past 2 weeks in Kalamazoo, Michigan, U.S.A.

Now
69 °F

Fog.


Feels Like: 69 °F
Forecast: 70 / 84 °F
Wind: 3 mph from Northeast

Location: Kalamazoo / Battle Creek International Airport

Current Time: Aug 23, 2014 at 5:35:51 AM

Latest Report: Aug 23, 2014 at 4:58 AM


Visibility: 3 mi

Pressure: 30.00 "Hg

Humidity: 96%

Dew point: 68 °F

Location of KalamazooLocation

Historic Weather in Kalamazoo — Graph

°F

Kalamazoo temperature yesterday

Maximum temperature yesterday: 84 °F (at 5:53 PM)
Minimum temperature yesterday: 69 °F (at 4:03 AM)
Average temperature yesterday: 75 °F

Past Weeks' High & Low Weather Summary

 TemperatureHumidityPressure
High86 °F (Aug 10, 3:53 PM)97% (Aug 13, 6:53 AM)30.15 "Hg (Aug 13, 6:53 AM)
Low44 °F (Aug 15, 5:53 AM)30% (Aug 15, 6:53 PM)29.70 "Hg (Aug 12, 4:53 AM)
Average70 °F73%29.95 "Hg
* Reported Aug 8 4:53 AM — Aug 23 4:04 AM, Kalamazoo, Weather by CustomWeather, © 2014

Note: Actual official high and low records may vary slightly from our data, if they occured in-between our weather recording intervals... More about our weather records

Advertising

Kalamazoo weather history for previous 24 hours

 ConditionsComfort  
Time TempWeatherWind HumidityBarometerVisibility
4:04 AM
Aug 23
70 °FFog.No wind93%30.00 "Hg2 mi
3:53 AM71 °FFog.No wind93%29.98 "Hg3 mi
3:04 AM70 °FFog.No wind97%30.00 "Hg2 mi
2:53 AM70 °FFog.No wind93%29.99 "Hg2 mi
1:53 AM73 °FFog.No wind90%29.99 "Hg3 mi
1:01 AM71 °FFog.No wind93%30.02 "Hg1 mi
11:53 PM
Aug 22
73 °FFog.No wind90%30.01 "Hg3 mi
10:53 PM74 °FFog.No wind91%29.99 "Hg5 mi
9:53 PM77 °FPassing clouds.No wind82%29.98 "Hg7 mi
8:53 PM78 °FOvercast.No wind79%29.97 "Hg9 mi
7:53 PM80 °FOvercast.No wind74%29.96 "Hg9 mi
6:53 PM82 °FPassing clouds.5 mph70%29.95 "Hg8 mi
5:53 PM84 °FScattered clouds.5 mph67%29.94 "Hg9 mi
4:53 PM82 °FScattered clouds.5 mph72%29.95 "Hg8 mi
3:53 PM82 °FMostly cloudy.5 mph72%29.95 "Hg8 mi
2:53 PM80 °FOvercast.6 mph74%29.96 "Hg8 mi
1:53 PM80 °FOvercast.5 mph74%29.96 "Hg8 mi
12:53 PM78 °FMostly cloudy.5 mph79%29.96 "Hg7 mi
11:53 AM75 °FLow clouds.6 mph85%29.98 "Hg5 mi
10:53 AM73 °FFog.5 mph90%29.98 "Hg2 mi
9:53 AM72 °FFog.7 mph91%29.97 "Hg1 mi
8:53 AM71 °FFog.No wind93%29.96 "Hg1 mi
7:53 AM70 °FFog.No wind97%29.95 "Hg1 mi
6:53 AM69 °FFog.3 mph96%29.94 "Hg1 mi
5:53 AM70 °FFog.No wind93%29.94 "Hg0 mi
Weather by CustomWeather, © 2014

See weather overviewHow to use our weather pages